Wind_Speed
16 16 17 18 20 22 23 23 21 21 21 20 21 21 22 22 23 24 22 21 21 21 21 22 22 23 24 26 27 26 27 30 34 36 38 39 40 40 38 38 37 34 31 31 32 33 34 33 30 28 29 29 28 30
21 20 19 20 22 23 22 23 25 26 24 23 22 21 20 20 21 21 20 20 19 19 21 22 23 24 25 26 24 26 28 32 35 36 38 40 39 38 37 35 33 33 33 31 28 22 27 27 24 25 28 28 31 30
25 24 22 22 22 23 22 20 20 21 21 22 23 22 21 21 20 20 18 18 19 21 21 21 22 23 24 25 26 29 31 33 35 37 39 38 37 37 35 31 31 31 29 26 21 20 21 22 24 27 29 31 31 34
28 27 26 25 23 22 22 21 21 21 20 20 20 21 22 21 20 19 18 18 18 20 23 22 20 20 23 26 29 31 34 36 39 39 36 34 36 33 27 28 29 26 23 22 21 23 20 25 31 34 36 39 39 41
29 29 29 27 25 23 23 24 23 22 22 23 22 21 20 19 20 20 20 20 19 20 21 23 21 23 24 26 29 32 35 38 39 37 34 33 32 26 22 27 25 21 21 21 18 24 26 24 30 34 40 45 47 48
31 30 29 30 30 27 24 24 24 24 23 24 23 22 22 20 19 18 19 20 20 21 21 24 24 25 26 27 31 34 36 37 36 33 29 29 28 25 22 26 21 20 20 23 24 28 31 34 38 37 39 41 44 45
33 31 30 29 31 30 28 26 26 25 24 24 24 24 23 22 21 20 20 20 22 23 23 23 25 26 27 30 33 35 36 34 33 31 28 28 29 28 25 23 20 20 21 24 26 29 28 31 35 38 34 34 34 35
33 32 31 30 29 29 28 30 28 27 25 25 24 25 24 24 23 22 21 22 23 23 24 25 25 27 28 31 33 35 34 32 28 27 28 27 29 27 22 17 20 20 22 25 27 32 35 34 36 37 42 36 31 31
32 30 29 30 29 30 32 31 29 27 26 26 25 25 25 24 22 21 22 23 24 24 24 25 27 29 30 32 33 33 30 26 25 26 27 27 26 22 16 17 19 21 21 27 25 27 31 34 35 38 40 35 35 30
32 31 30 32 32 36 32 27 27 26 25 24 23 22 20 22 20 21 24 25 26 26 26 27 29 30 31 32 33 30 25 22 22 24 24 23 18 14 15 17 20 22 26 30 28 25 31 32 38 43 35 32 31 29
32 33 32 32 30 26 24 25 25 25 24 23 21 19 19 23 26 27 26 27 27 27 27 29 30 32 32 33 32 27 22 21 21 23 20 14 14 14 17 21 23 23 24 26 30 33 36 39 40 42 33 25 26 31
30 32 32 29 25 24 24 24 25 25 24 23 22 23 28 27 26 28 28 28 26 28 29 29 31 33 33 29 26 23 21 20 22 19 14 15 16 16 19 24 24 25 24 25 30 33 37 38 40 38 28 24 26 28
28 27 26 26 26 26 27 26 24 24 25 25 26 28 26 26 29 29 29 27 28 30 30 32 34 33 32 25 21 20 19 20 21 16 14 14 13 16 21 21 23 22 27 27 27 32 33 35 32 26 22 25 28 26
33 32 32 31 31 30 28 28 27 26 28 28 27 28 28 30 30 30 29 30 31 32 33 31 30 27 26 23 20 19 18 19 19 15 15 14 13 18 20 23 24 25 25 24 26 29 28 34 31 28 27 25 26 26
38 36 35 36 35 33 32 32 31 31 31 30 27 28 30 32 33 31 30 31 33 34 33 29 26 23 22 21 19 19 18 18 17 15 16 16 14 17 20 21 21 23 24 24 26 27 29 32 36 32 27 25 22 22
38 37 37 37 37 35 35 35 35 34 33 32 27 30 33 33 32 30 32 34 35 32 29 26 24 22 21 20 18 20 18 18 17 17 18 15 14 18 20 23 24 24 27 24 25 28 30 30 36 28 23 20 19 17
39 39 41 37 35 36 34 34 35 35 34 29 27 32 33 33 31 31 33 36 33 26 24 23 20 22 19 18 18 21 19 17 18 16 16 15 14 18 23 25 24 24 24 21 23 26 27 30 32 24 18 13 13 13
39 40 38 37 37 36 36 36 36 36 32 30 30 33 32 30 31 34 34 32 25 22 21 22 21 16 15 16 20 20 18 16 17 14 14 14 15 21 23 22 24 23 20 18 20 24 28 32 23 20 16 10 10 11
38 36 35 35 35 34 34 35 34 33 31 31 30 32 31 29 31 33 28 25 20 19 19 19 16 13 17 18 17 17 16 15 16 12 11 11 15 18 22 22 21 19 17 17 18 23 30 25 16 16 15 13 11 11
40 38 36 35 34 33 33 32 32 31 30 31 31 31 29 28 30 25 22 22 19 18 13 13 16 16 16 16 16 14 13 13 12 10 9 11 13 16 16 18 16 15 15 17 20 24 30 16 21 17 15 14 11 11
36 36 36 35 35 35 35 33 31 30 31 31 30 28 26 25 23 20 20 18 15 11 15 17 16 14 14 14 13 11 12 11 8 7 10 9 10 9 13 15 15 15 17 20 24 26 29 19 18 16 15 15 15 15
31 33 34 35 35 35 34 29 28 29 29 28 25 22 23 21 21 18 15 12 15 17 15 14 14 13 12 12 10 10 11 8 8 3 7 6 1 5 10 14 16 16 18 20 22 27 30 27 14 15 17 19 17 15
29 30 30 30 30 30 25 25 25 26 24 23 21 20 19 17 16 15 15 15 13 14 13 13 12 12 11 9 8 10 9 8 6 2 3 1 3 5 10 13 11 13 17 20 21 24 24 26 29 27 28 20 22 21
25 25 24 24 23 21 21 22 21 21 19 18 18 16 16 16 15 15 14 13 13 12 11 11 11 8 8 8 8 10 11 8 9 3 3 2 2 5 9 12 11 13 15 17 20 22 24 24 23 24 24 23 22 21
21 23 21 18 17 18 18 16 15 14 15 16 16 14 13 14 14 13 10 10 12 12 12 10 6 6 7 8 10 11 12 7 7 2 2 2 3 4 7 10 10 10 11 14 17 20 22 23 22 22 23 21 19 18
21 19 17 16 17 17 15 14 12 13 13 15 14 14 14 13 13 12 12 12 12 12 8 6 4 5 7 8 8 11 9 10 4 6 5 3 3 3 4 8 11 11 13 14 17 18 19 19 20 21 21 21 21 20
17 16 18 18 18 16 17 18 13 11 14 15 15 13 13 12 12 11 11 12 13 12 10 6 3 3 7 7 8 10 8 11 6 4 6 4 2 3 4 7 10 10 10 11 13 14 16 18 19 20 20 20 19 18
17 18 17 19 17 21 21 15 11 13 16 15 13 12 11 10 10 11 12 12 12 12 14 10 6 5 7 8 11 9 10 7 5 3 3 2 4 3 3 6 9 11 11 11 12 15 17 19 20 22 23 24 24 22
18 16 15 15 19 22 17 10 14 16 15 13 12 11 10 9 9 10 12 10 9 14 13 10 7 5 5 7 11 8 11 3 9 7 4 4 4 3 4 7 9 10 11 13 16 18 19 20 20 21 22 21 19 16
15 13 14 15 14 12 14 17 19 18 16 13 11 10 9 7 7 7 8 9 11 12 11 9 8 5 4 6 9 11 8 2 6 6 6 3 3 4 4 6 10 12 14 15 17 20 22 23 24 22 19 14 11 13
18 15 13 12 13 14 14 16 16 16 13 10 8 7 8 8 8 7 8 10 11 11 12 10 8 9 6 8 10 16 11 6 5 5 4 2 3 5 3 7 11 12 14 16 18 21 23 22 20 17 12 8 8 9
17 15 12 10 10 12 13 14 14 13 12 10 10 10 9 7 8 9 10 11 13 14 13 12 11 11 9 8 13 18 15 11 8 6 8 4 2 3 6 11 14 15 15 18 20 18 15 14 12 11 10 9 10 13
13 11 11 11 11 11 11 10 11 10 9 8 9 9 10 11 12 11 10 12 13 13 15 15 12 10 7 8 16 16 10 14 5 13 9 2 3 4 7 11 14 16 16 15 12 11 11 12 13 15 15 16 16 16
Wind_Direction
289 297 303 302 303 292 282 283 286 292 285 283 280 277 276 275 276 276 275 271 269 267 263 265 270 275 281 286 290 293 297 301 302 302 303 304 303 301 300 300 297 291 285 282 284 289 292 291 290 286 282 283 278 273
276 286 295 302 305 307 300 285 284 288 285 278 278 279 281 278 274 272 273 270 265 264 265 267 271 278 284 287 292 297 302 305 305 304 303 302 301 300 300 300 291 289 288 293 291 285 275 283 292 288 286 283 279 271
270 275 283 292 302 306 304 297 294 295 290 282 278 276 279 278 276 273 269 267 269 271 272 276 279 285 288 291 296 301 305 306 306 306 305 304 302 301 301 294 288 290 294 291 288 279 290 296 289 283 280 278 274 274
267 268 274 284 292 300 300 295 294 296 297 294 286 282 280 276 276 275 272 271 270 271 275 279 282 285 287 293 300 305 307 309 310 310 308 305 301 302 298 289 288 292 287 287 290 289 296 298 294 292 292 287 279 276
271 269 267 272 281 291 297 292 290 291 294 292 291 290 285 275 274 276 277 276 277 277 284 287 288 289 292 296 300 305 307 309 310 308 305 301 300 300 296 289 294 286 284 290 290 295 302 302 295 293 291 293 292 288
268 270 269 267 270 279 290 293 289 289 290 289 289 288 286 284 279 276 278 280 283 285 284 285 290 293 296 299 304 305 308 310 308 305 303 301 301 302 301 293 291 282 287 294 299 303 308 306 306 302 293 288 290 286
264 266 268 270 268 270 278 289 291 288 287 287 288 288 286 287 285 281 279 280 285 288 288 288 292 295 298 302 303 307 309 307 306 306 305 303 300 300 297 285 277 281 290 298 306 310 307 308 312 318 310 307 303 302
261 264 267 269 270 269 276 281 287 287 284 283 284 284 286 287 286 285 283 283 286 289 290 292 293 295 299 302 304 309 308 306 304 299 297 296 293 296 288 273 270 284 297 307 307 302 311 311 313 313 314 303 303 307
253 261 265 268 264 266 281 279 279 281 281 281 280 280 283 284 284 284 286 287 289 291 292 293 294 296 301 303 306 307 304 301 297 296 297 295 293 289 274 266 273 294 301 311 307 311 307 308 310 312 308 304 300 302
251 259 265 268 267 274 274 271 275 274 277 279 280 281 282 284 286 287 288 289 291 293 294 295 297 298 302 302 304 304 301 293 292 297 299 297 292 278 267 272 284 301 301 305 312 313 314 313 315 322 313 309 304 299
254 260 264 268 270 268 268 271 272 270 272 274 275 276 281 290 291 288 287 291 294 296 296 296 298 301 302 302 303 303 298 296 300 307 302 290 285 273 281 290 297 311 311 313 323 325 321 323 317 317 318 311 306 307
262 263 264 261 259 263 267 268 270 270 270 271 271 277 289 289 286 286 290 292 294 295 296 297 297 297 297 299 299 296 294 299 307 305 293 290 290 290 288 295 310 320 323 322 317 321 325 322 321 322 315 314 311 309
262 262 258 257 260 264 264 263 265 270 272 272 276 284 286 285 287 288 291 293 292 291 294 296 295 296 297 298 295 293 294 298 302 296 282 285 287 291 297 309 319 319 323 319 320 327 332 335 336 333 324 320 324 321
261 260 260 260 261 261 261 264 266 269 273 278 279 282 284 289 286 284 287 290 290 292 294 296 294 291 289 293 291 285 283 294 297 287 275 281 289 292 306 318 321 324 325 320 326 334 338 346 344 340 336 325 332 329
260 260 259 259 260 261 261 261 264 268 271 273 275 279 282 280 280 283 285 286 289 292 293 290 283 282 280 281 281 279 279 288 293 278 260 278 293 300 313 322 329 330 332 331 334 332 333 340 343 334 331 332 332 333
259 259 258 257 259 260 262 265 267 268 268 271 276 276 274 275 277 281 284 287 290 292 288 283 280 275 273 277 273 268 273 283 297 286 271 290 303 304 317 325 322 321 331 335 340 336 336 340 340 333 320 330 330 336
257 258 257 256 258 260 261 263 265 266 269 275 271 265 268 272 278 282 285 284 287 282 273 273 272 268 271 263 262 262 270 284 301 295 277 287 297 303 314 320 330 328 329 336 342 335 340 338 345 347 342 348 341 346
254 254 256 255 255 257 259 261 263 266 267 266 262 264 268 274 280 283 282 283 284 277 271 272 273 267 262 255 256 262 270 287 301 283 271 291 297 314 328 329 329 328 333 340 343 343 354 347 352 359 9 21 8 14
250 251 252 253 253 254 255 257 259 262 261 257 259 266 273 277 278 277 279 278 274 267 270 267 264 254 249 252 256 262 274 291 284 272 281 291 299 318 332 333 337 341 345 347 343 349 353 358 22 31 22 20 23 29
246 246 246 247 249 250 252 253 253 253 255 259 262 268 275 275 273 273 272 272 266 264 267 254 244 243 248 256 260 264 275 282 269 272 295 295 319 333 339 348 353 358 360 1 360 7 9 27 23 38 47 43 40 46
242 242 243 244 243 245 245 245 249 251 254 260 267 272 273 268 265 263 260 263 271 250 234 236 243 246 244 245 249 259 280 266 252 286 294 295 320 348 5 15 23 23 28 30 27 25 22 20 21 50 59 54 40 33
235 237 239 242 245 247 248 253 255 256 260 262 263 260 256 255 254 255 256 240 225 228 235 239 240 242 240 238 240 266 263 241 220 252 76 347 30 7 20 28 36 36 34 34 28 30 32 38 63 62 53 42 40 39
232 233 235 238 241 245 249 249 250 253 252 253 250 243 239 237 234 225 219 222 226 226 228 234 234 232 234 233 256 259 242 214 210 168 1 308 353 29 32 29 24 37 33 29 30 32 35 37 41 44 42 47 45 44
228 229 230 231 232 235 234 237 240 241 240 232 226 217 212 211 209 212 214 219 224 222 225 230 231 241 240 251 251 235 213 197 216 163 258 277 357 39 31 29 24 31 26 19 26 26 26 28 34 37 37 41 43 41
222 226 225 225 223 223 222 225 224 222 217 203 198 206 206 200 202 202 202 217 217 202 203 215 227 231 254 247 236 214 199 209 198 178 268 288 333 17 19 19 16 22 21 24 25 24 22 21 23 25 27 28 31 35
210 215 212 207 206 202 203 194 185 190 193 203 204 197 192 194 198 211 228 219 200 188 193 190 196 238 235 228 214 194 196 172 151 217 234 234 305 329 359 11 5 9 15 17 17 16 15 13 14 14 15 12 12 11
198 196 194 198 189 189 185 176 178 193 196 197 192 185 190 199 211 214 203 188 185 192 199 188 189 246 228 213 195 179 191 170 149 214 212 210 335 296 355 6 0 360 5 4 3 6 5 2 0 0 2 3 2 358
180 183 184 181 186 185 186 172 170 195 182 173 176 182 183 187 188 182 178 180 193 208 214 212 217 260 249 222 190 185 202 162 130 126 179 233 291 286 350 355 354 348 344 348 351 350 349 349 352 353 352 351 352 350
168 169 172 178 180 187 177 176 189 179 167 166 163 165 174 180 184 181 183 208 217 206 205 198 202 238 249 216 199 180 178 158 187 179 241 253 253 283 342 351 350 345 342 344 344 342 342 342 344 343 342 345 353 4
137 143 161 170 169 169 178 183 176 166 164 164 164 166 168 167 184 195 195 197 202 205 209 204 198 233 259 212 193 180 165 256 233 175 159 207 276 302 343 0 346 338 337 340 340 340 339 336 335 334 335 343 0 7
140 143 157 166 175 181 174 174 172 171 174 181 191 196 192 197 208 211 212 214 216 211 209 206 208 221 254 215 202 184 172 176 171 171 201 240 326 314 332 346 337 330 331 336 336 335 334 334 338 346 356 6 7 11
152 154 155 156 157 159 164 169 177 187 199 207 208 210 217 232 247 236 234 227 217 220 217 209 216 219 239 215 204 189 175 176 163 196 255 318 327 290 332 339 330 324 330 340 339 342 349 358 9 24 27 16 357 348
147 145 142 143 148 156 165 177 178 182 195 210 221 236 251 255 246 239 230 223 211 208 199 201 211 227 225 207 200 192 184 179 217 239 239 245 251 293 330 325 320 329 342 346 352 357 357 352 353 356 356 353 351 347
Height
5830 5829 5828 5827 5825 5824 5823 5823 5822 5821 5820 5819 5818 5818 5818 5818 5817 5816 5816 5816 5816 5816 5816 5816 5816 5816 5816 5815 5813 5811 5809 5806 5801 5797 5793 5789 5785 5780 5776 5773 5769 5766 5763 5761 5758 5756 5753 5751 5749 5749 5747 5744 5744 5743
5825 5824 5823 5822 5820 5818 5816 5815 5815 5815 5813 5813 5812 5812 5812 5811 5810 5810 5810 5809 5810 5810 5811 5810 5810 5809 5808 5806 5805 5804 5802 5797 5793 5789 5785 5780 5775 5771 5767 5764 5758 5756 5753 5752 5750 5748 5744 5742 5743 5740 5738 5737 5735 5733
5818 5818 5818 5817 5815 5814 5812 5810 5809 5808 5807 5806 5806 5806 5805 5804 5804 5804 5804 5804 5804 5804 5804 5804 5803 5802 5800 5799 5798 5796 5793 5789 5785 5780 5775 5770 5765 5761 5758 5755 5749 5747 5745 5743 5742 5740 5738 5737 5735 5733 5731 5729 5727 5723
5811 5811 5811 5810 5810 5808 5807 5806 5805 5803 5802 5801 5800 5799 5799 5799 5798 5798 5798 5798 5799 5798 5797 5797 5796 5796 5794 5792 5789 5786 5782 5778 5773 5768 5764 5760 5756 5753 5750 5745 5742 5741 5738 5737 5735 5731 5732 5730 5726 5723 5719 5716 5714 5712
5803 5803 5803 5803 5803 5802 5801 5800 5799 5798 5797 5795 5794 5794 5793 5793 5793 5793 5792 5792 5792 5793 5790 5788 5790 5788 5786 5784 5781 5777 5773 5769 5764 5759 5755 5751 5747 5745 5742 5737 5736 5734 5731 5730 5729 5725 5723 5726 5719 5713 5706 5701 5697 5692
5794 5794 5795 5795 5795 5795 5795 5793 5793 5792 5790 5789 5788 5788 5787 5787 5787 5787 5787 5786 5785 5785 5785 5782 5782 5780 5778 5775 5772 5768 5764 5759 5755 5751 5747 5742 5739 5738 5736 5731 5730 5728 5726 5724 5721 5717 5714 5710 5706 5702 5695 5690 5684 5678
5785 5785 5786 5786 5786 5787 5787 5787 5786 5785 5784 5783 5782 5781 5781 5781 5781 5781 5782 5781 5779 5778 5777 5776 5775 5773 5770 5767 5763 5759 5755 5751 5746 5742 5738 5736 5732 5731 5728 5725 5724 5723 5721 5719 5713 5708 5706 5702 5695 5689 5683 5678 5673 5667
5775 5776 5777 5777 5778 5778 5779 5779 5779 5778 5777 5776 5775 5775 5774 5774 5774 5774 5773 5773 5772 5771 5770 5769 5767 5765 5762 5759 5755 5750 5746 5741 5739 5735 5733 5730 5726 5724 5722 5720 5718 5718 5717 5712 5708 5703 5696 5692 5686 5679 5671 5665 5662 5657
5764 5766 5767 5768 5769 5770 5770 5770 5771 5770 5769 5768 5768 5768 5767 5767 5767 5767 5766 5765 5764 5765 5762 5761 5759 5756 5753 5750 5746 5742 5738 5735 5732 5729 5726 5723 5720 5717 5716 5715 5714 5712 5708 5705 5702 5697 5691 5684 5677 5670 5661 5654 5649 5647
5755 5757 5758 5759 5760 5760 5761 5761 5762 5762 5762 5761 5761 5761 5761 5760 5760 5760 5759 5758 5756 5755 5753 5752 5749 5747 5745 5741 5737 5735 5731 5729 5726 5723 5720 5716 5713 5712 5711 5710 5709 5707 5703 5697 5693 5690 5683 5677 5668 5659 5649 5643 5638 5635
5746 5747 5749 5750 5751 5751 5752 5753 5754 5754 5754 5754 5754 5754 5755 5754 5753 5752 5752 5751 5749 5748 5746 5743 5741 5738 5735 5732 5729 5727 5724 5722 5720 5717 5714 5711 5709 5708 5708 5706 5704 5702 5696 5691 5684 5679 5671 5663 5655 5648 5642 5635 5630 5626
5737 5738 5739 5740 5742 5743 5744 5745 5746 5746 5747 5747 5747 5747 5747 5745 5745 5744 5743 5743 5742 5740 5738 5735 5733 5730 5726 5724 5722 5720 5718 5716 5714 5712 5710 5708 5707 5706 5704 5703 5700 5695 5690 5685 5679 5673 5665 5657 5647 5640 5633 5628 5623 5618
5728 5729 5731 5732 5734 5735 5736 5736 5737 5738 5739 5739 5740 5740 5739 5738 5736 5735 5735 5735 5733 5731 5729 5727 5724 5722 5718 5717 5716 5715 5713 5712 5710 5708 5707 5705 5704 5702 5700 5698 5694 5689 5685 5680 5674 5667 5659 5650 5640 5633 5628 5622 5617 5611
5719 5720 5722 5723 5724 5725 5727 5728 5729 5730 5730 5731 5732 5732 5730 5729 5728 5727 5727 5726 5725 5723 5721 5719 5716 5715 5712 5711 5710 5710 5709 5708 5706 5704 5703 5702 5701 5699 5697 5693 5688 5685 5680 5674 5668 5661 5654 5646 5638 5630 5624 5617 5612 5605
5707 5709 5711 5712 5713 5716 5717 5718 5719 5720 5720 5721 5724 5723 5722 5719 5717 5719 5719 5717 5716 5713 5712 5710 5708 5708 5707 5706 5705 5705 5704 5703 5701 5700 5699 5699 5698 5696 5693 5689 5685 5681 5676 5669 5663 5657 5650 5642 5634 5626 5619 5613 5608 5603
5695 5698 5699 5700 5703 5705 5706 5708 5709 5709 5710 5711 5715 5713 5710 5709 5709 5710 5709 5707 5706 5705 5703 5702 5702 5701 5700 5700 5701 5700 5700 5698 5697 5696 5696 5696 5694 5692 5689 5685 5680 5676 5670 5664 5659 5652 5645 5638 5630 5621 5615 5610 5606 5602
5682 5685 5685 5689 5692 5693 5695 5697 5698 5699 5700 5704 5703 5700 5700 5700 5702 5701 5700 5697 5697 5697 5695 5695 5696 5695 5695 5695 5696 5694 5694 5694 5694 5693 5692 5692 5690 5689 5685 5681 5676 5670 5665 5661 5656 5649 5642 5635 5627 5620 5613 5609 5605 5602
5669 5670 5675 5677 5679 5681 5684 5686 5687 5689 5693 5692 5691 5689 5691 5693 5693 5692 5690 5688 5689 5688 5688 5688 5689 5689 5689 5690 5689 5690 5691 5691 5689 5688 5688 5688 5687 5685 5681 5676 5671 5666 5661 5658 5653 5646 5640 5632 5625 5619 5614 5610 5607 5604
5656 5659 5662 5665 5668 5670 5672 5674 5677 5679 5680 5681 5682 5682 5683 5684 5683 5681 5681 5681 5682 5682 5682 5682 5683 5684 5684 5684 5686 5687 5687 5687 5685 5685 5686 5686 5685 5682 5678 5673 5668 5663 5660 5656 5651 5645 5638 5630 5626 5620 5616 5613 5610 5607
5644 5648 5651 5654 5657 5660 5662 5664 5666 5668 5670 5672 5672 5673 5675 5674 5672 5673 5673 5673 5674 5676 5677 5678 5678 5678 5680 5681 5682 5683 5684 5683 5683 5684 5684 5684 5683 5680 5676 5671 5666 5663 5660 5655 5650 5644 5637 5631 5628 5624 5619 5617 5615 5612
5633 5637 5640 5644 5646 5649 5651 5654 5656 5659 5660 5662 5663 5664 5666 5665 5666 5667 5667 5668 5670 5672 5672 5673 5673 5674 5676 5677 5679 5680 5680 5680 5682 5683 5683 5682 5681 5679 5676 5672 5667 5664 5661 5657 5651 5646 5640 5634 5630 5627 5624 5621 5619 5617
5623 5626 5630 5632 5636 5640 5643 5646 5648 5650 5652 5653 5656 5657 5657 5659 5659 5661 5663 5664 5665 5666 5669 5670 5670 5671 5673 5674 5675 5676 5676 5679 5680 5680 5680 5679 5680 5678 5676 5672 5669 5667 5663 5659 5655 5650 5645 5638 5635 5632 5630 5627 5624 5622
5614 5617 5621 5625 5629 5631 5637 5638 5640 5642 5644 5646 5648 5649 5652 5654 5656 5657 5659 5661 5663 5664 5665 5666 5667 5669 5670 5671 5672 5673 5675 5677 5679 5678 5678 5679 5678 5677 5675 5673 5671 5668 5665 5662 5658 5655 5651 5646 5641 5638 5635 5631 5630 5627
5607 5611 5615 5618 5622 5626 5628 5630 5633 5635 5638 5639 5642 5645 5647 5650 5652 5654 5656 5658 5660 5661 5663 5664 5666 5667 5668 5669 5669 5671 5673 5675 5676 5677 5677 5678 5677 5676 5675 5673 5671 5668 5667 5664 5660 5657 5654 5651 5648 5644 5641 5638 5635 5632
5604 5607 5611 5615 5618 5621 5623 5626 5628 5631 5633 5636 5639 5642 5645 5647 5649 5652 5654 5656 5657 5659 5661 5663 5664 5664 5665 5666 5667 5670 5672 5673 5674 5675 5676 5677 5677 5676 5675 5674 5672 5670 5668 5665 5663 5660 5657 5654 5651 5648 5646 5643 5641 5638
5600 5604 5608 5611 5614 5618 5620 5623 5626 5629 5632 5635 5638 5640 5643 5645 5648 5650 5651 5653 5655 5658 5659 5660 5662 5663 5663 5664 5666 5668 5670 5672 5673 5674 5675 5676 5676 5676 5675 5674 5672 5670 5668 5666 5663 5661 5659 5656 5654 5651 5648 5646 5643 5641
5598 5602 5606 5608 5612 5616 5619 5623 5626 5629 5631 5634 5636 5639 5642 5644 5645 5647 5649 5652 5654 5656 5658 5660 5661 5661 5662 5663 5665 5667 5669 5671 5672 5673 5674 5675 5676 5676 5676 5674 5672 5671 5668 5667 5665 5662 5660 5657 5654 5652 5649 5647 5645 5642
5597 5601 5604 5608 5611 5615 5618 5622 5625 5628 5630 5633 5636 5638 5640 5642 5644 5647 5648 5650 5653 5655 5657 5659 5660 5660 5660 5662 5664 5666 5667 5670 5671 5672 5674 5675 5675 5675 5675 5674 5673 5671 5669 5667 5666 5663 5660 5657 5655 5652 5648 5645 5642 5639
5598 5602 5605 5608 5611 5615 5619 5622 5625 5628 5631 5634 5637 5638 5640 5642 5644 5646 5648 5649 5650 5652 5655 5658 5659 5660 5659 5660 5663 5665 5667 5669 5670 5670 5672 5673 5674 5674 5673 5673 5672 5671 5669 5667 5664 5662 5660 5657 5654 5651 5648 5645 5642 5639
5601 5604 5608 5611 5614 5617 5620 5622 5625 5628 5631 5634 5637 5639 5641 5643 5644 5645 5647 5649 5651 5653 5655 5657 5658 5659 5659 5660 5662 5664 5666 5668 5668 5669 5671 5673 5673 5673 5673 5673 5672 5669 5667 5666 5663 5660 5657 5654 5652 5648 5646 5643 5641 5639
5604 5607 5610 5613 5615 5617 5620 5623 5626 5629 5632 5634 5636 5639 5640 5642 5643 5644 5646 5647 5649 5651 5653 5655 5657 5658 5658 5660 5661 5663 5666 5668 5669 5670 5671 5672 5672 5672 5672 5672 5671 5670 5668 5666 5663 5660 5656 5653 5649 5646 5644 5643 5642 5640
5608 5610 5613 5615 5617 5619 5621 5624 5626 5629 5631 5633 5635 5636 5638 5640 5641 5642 5644 5645 5647 5649 5651 5653 5655 5656 5657 5658 5660 5661 5665 5668 5669 5671 5670 5671 5671 5670 5670 5670 5670 5669 5667 5664 5661 5658 5655 5653 5650 5648 5646 5644 5642 5640
5611 5613 5615 5616 5619 5621 5623 5625 5627 5629 5630 5632 5633 5634 5635 5636 5636 5638 5640 5641 5644 5647 5649 5651 5653 5654 5656 5658 5659 5661 5664 5667 5669 5669 5670 5670 5671 5670 5670 5670 5669 5666 5664 5662 5660 5658 5656 5653 5651 5648 5646 5643 5641 5639